Location: Savignano sul Rubicone
(44.0950°N, 12.4090°E)
Time: 12:00:52
(UTC+01:00)

Tiangong 2 - Pass Details

Date: 19 February 2019
Orbit: 379 x 390 km, 42.8° (Epoch: 19 March)

Event Time Altitude Azimuth Distance (km) Brightness Sun altitude
Rises 18:35:48 0° 276° (W) 2,257 6.9 -9.8°
Reaches altitude 10° 18:38:00 10° 266° (W) 1,400 5.5 -10.2°
Maximum altitude 18:40:52 32° 201° (SSW) 674 2.5 -10.7°
Drops below altitude 10° 18:43:43 10° 135° (SE) 1,390 3.5 -11.2°
Enters shadow 18:43:54 - 134° (SE) 1,459 3.6 -11.3°
